Location: Moscow
(55.7500°N, 37.5830°E)
Time: 03:15:36
(UTC+03:00)

N. Korean satellite - Pass Details

Date: 02 March 2021
Orbit: 452 x 499 km, 97.2° (Epoch: 22 April)

Event Time Altitude Azimuth Distance (km) Brightness Sun altitude
Rises 05:40:29 0° 19° (NNE) 2,513 10.6 -14.5°
Reaches altitude 10° 05:42:37 10° 27° (NNE) 1,640 9.7 -14.2°
Maximum altitude 05:45:58 40° 98° (E) 711 8.0 -13.8°
Drops below altitude 10° 05:49:20 10° 170° (S) 1,652 9.3 -13.3°
Sets 05:51:29 0° 178° (S) 2,535 10.2 -13.0°
